Miscellaneous Local Product
Issued by NWS North Platte, NE

Home | Current Version | Previous Version | Text Only | Print | Product List | Glossary On
Versions: 1 2 3 4 5 6 7 8 9 10 11 12 13 14 15 16 17 18 19 20 21 22 23 24 25 26 27 28 29 30 31 32 33 34 35 36 37 38 39 40 41 42 43 44 45 46 47 48 49 50
000
AXUS43 KLBF 231810
MISLBF


WESTERN AND NORTH CENTRAL NEBRASKA HOURLY WEATHER ROUNDUP
NATIONAL WEATHER SERVICE NORTH PLATTE NE
1200 PM CST FRI FEB 23 2018

NOTE: "FAIR" INDICATES FEW OR NO CLOUDS BELOW 12,000 FEET WITH NO
SIGNIFICANT WEATHER AND/OR OBSTRUCTIONS TO VISIBILITY.

NOTE: STATIONS NOT REPORTING VARIABLES SUCH AS SKY/WEATHER OR
PRESSURE ARE PROVIDED BY RAWS AND APRS NETWORKS AND ARE NOT UNDER
NATIONAL WEATHER SERVICE QUALITY CONTROL.

...OBSERVATIONS IN AND NEAR THE EASTERN PANHANDLE OF NEBRASKA...

CITY           SKY/WX    TMP DP  RH WIND       PRES   REMARKS
PINE RIDGE     SUNNY     15   8  73 NW6       30.18F WCI   6
GORDON         FAIR      15  10  83 NW5       30.16S WCI   7
CHADRON        SUNNY     10   3  73 CALM      30.19F
ALLIANCE       SUNNY     15  10  80 CALM      30.14F
SIDNEY         SUNNY     26  12  55 E7        30.13R WCI  18
CRESCENT LAKE    N/A     20  10  63 N6          N/A  WCI  12
$$

...OBSERVATIONS IN NORTHERN NEBRASKA AND FAR SOUTHERN SOUTH DAKOTA...

CITY           SKY/WX    TMP DP  RH WIND       PRES   REMARKS
WINNER         FAIR      13   5  70 NW10      30.28S WCI   0
VALENTINE      SUNNY     16   6  65 W8        30.24R WCI   5
AINSWORTH      SUNNY     17  11  78 NW10      30.22F WCI   4
O`NEILL        PTSUNNY   17  14  86 NW7       30.28R WCI   8
THEDFORD       SUNNY     21  12  68 N5        30.22R WCI  15
BROKEN BOW     CLOUDY    20  15  81 CALM      30.27R
ORD            CLOUDY    20  16  84 CALM      30.30R
ALBION         CLOUDY    24  18  79 NW3       30.31R
VALENTINE NWR    N/A     18   6  59 NW9         N/A  WCI   7
HALSEY           N/A     21  10  61 NW5         N/A  WCI  15
BUTTE            N/A     17  13  84 W3          N/A
CHAMBERS         N/A     28  13  52 N3          N/A
EWING            N/A     20  17  87 N8          N/A  WCI  10
$$

...OBSERVATIONS IN SOUTHWEST NEBRASKA AND FAR NORTHEAST COLORADO...

CITY           SKY/WX    TMP DP  RH WIND       PRES   REMARKS
WRAY           FAIR      34  18  51 E10       30.16S WCI  26
HOLYOKE        FAIR      36  18  48 SE7       30.16R WCI  30
IMPERIAL       SUNNY     26  15  63 E8        30.20R WCI  18
OGALLALA       SUNNY     25  14  61 CALM      30.20R
NORTH PLATTE   SUNNY     22  13  68 E6        30.24R WCI  14
MCCOOK         SUNNY     28  23  81 NE6       30.24S WCI  22
LEXINGTON      CLOUDY    21  17  85 NE6       30.28R WCI  13
STAPLETON        N/A     18  10  71 CALM        N/A
$$

...OBSERVATIONS IN CENTRAL LINCOLN COUNTY AREA...

CITY           SKY/WX    TMP DP  RH WIND       PRES   REMARKS
N.P. AIRPORT   SUNNY     22  13  68 E6        30.24R WCI  14
N.P. DOWNTOWN    N/A     22  15  72 E3          N/A
N.P. SOUTHEAST   N/A     21  13  70 NE3         N/A
N.P. HILLCREST   N/A     22  14  71 E7          N/A  WCI  14
$$

...OBSERVATIONS ACROSS THE ROCKIES AND WESTERN HIGH PLAINS...

CITY           SKY/WX    TMP DP  RH WIND       PRES   REMARKS
RAPID CITY     SUNNY      9   3  77 SE5       30.18F WCI   1
SCOTTSBLUFF    SUNNY     21  11  65 E6        30.14S WCI  13
CHEYENNE       SUNNY     26  18  71 S14       29.99S WCI  14
DENVER         CLOUDY    23  19  85 SE8       30.02F FOG     WCI  14
BERTHOUD PASS  FAIR       5  -4  66 W17G26    29.81F WCI -14
COPPER MTN     SUNNY     14  -2  48 S14G24    29.83R WCI  -1
MONARCH PASS     N/A      9   3  78 SW21G31   29.95F WCI -11
ASPEN          CLOUDY    27   7  42 S12G18    29.88S WCI  17
LARAMIE        SUNNY     22  15  75 S8        29.90F WCI  12
CASPER         SUNNY      7  -3  64 CALM      30.02S
$$

...OBSERVATIONS ACROSS THE NORTHERN PLAINS...

CITY           SKY/WX    TMP DP  RH WIND       PRES   REMARKS
BISMARCK       SUNNY     14   3  61 W8        30.27S WCI   3
FARGO          FAIR      17   8  67 W12       30.23R WCI   4
PIERRE         SUNNY      9   3  77 W9        30.29R WCI  -4
SIOUX FALLS    CLOUDY    21  18  88 W10       30.27R WCI  10
$$

...OBSERVATIONS ACROSS THE CENTRAL AND SOUTHERN PLAINS...

CITY           SKY/WX    TMP DP  RH WIND       PRES   REMARKS
OMAHA          PTSUNNY   28  23  81 N9        30.33S WCI  19
GRAND ISLAND   CLOUDY    21  18  88 CALM      30.32R
KANSAS CITY    CLOUDY    33  28  81 N3        30.30S
WICHITA        CLOUDY    34  31  88 NE9       30.27R WCI  27
DODGE CITY     CLOUDY    29  27  92 NE10      30.19F FOG     WCI  20
OKLAHOMA CITY  LGT RAIN  36  35  96 N7        30.22F FOG     WCI  30
DALLAS         CLOUDY    46  44  93 N9        30.17F FOG
AMARILLO       SUNNY     55  24  30 E10       30.09F
$$




USA.gov is the U.S. government's official web portal to all federal, state and local government web resources and services.